DW4554 Weather Reports


time (UTC)temp
F
wind
direction
speed
knots
gust
knots
rain 1hr
in
rain 24hr
in
rain mn
in
humidity
%
barometer
mb
20260905150904 79 281 5.2 12.2 0.00 0.04 0.04 39 1015.3
20260905150404 79 248 4.3 12.2 0.00 0.04 0.04 39 1015.2
20260905145905 80 246 5.2 11.3 0.00 0.04 0.04 39 1015.3
20260905144904 79 313 1.7 8.7 0.00 0.04 0.04 40 1015.2
20260905143904 79 281 6.1 10.4 0.00 0.04 0.04 39 1015.3
20260905143404 79 264 2.6 10.4 0.00 0.04 0.04 41 1015.3
20260905142904 79 248 4.3 11.3 0.00 0.04 0.04 40 1015.3
20260905142404 79 242 6.1 11.3 0.00 0.04 0.04 40 1015.3
20260905141404 79 244 8.7 19.1 0.00 0.04 0.04 40 1015.5
20260905140904 79 240 6.1 13.0 0.00 0.04 0.04 39 1015.4
20260905140406 79 263 4.3 11.3 0.00 0.04 0.04 40 1015.5
20260905135904 79 234 4.3 10.4 0.00 0.04 0.04 41 1015.5
20260905135404 79 239 2.6 13.9 0.00 0.04 0.04 40 1015.5
20260905134904 79 290 3.5 15.6 0.00 0.04 0.04 41 1015.5
20260905134404 79 249 3.5 10.4 0.00 0.04 0.04 41 1015.5
20260905133904 79 269 6.1 11.3 0.00 0.04 0.04 42 1015.5
20260905133404 78 250 6.1 13.9 0.00 0.04 0.04 42 1015.4
20260905132904 78 249 6.1 17.4 0.00 0.04 0.04 43 1015.3
20260905131404 77 237 5.2 15.6 0.00 0.04 0.04 46 1015.5
20260905130905 77 248 6.1 12.2 0.00 0.04 0.04 46 1015.5
20260905130405 76 234 4.3 13.0 0.00 0.04 0.04 48 1015.5
20260905125904 76 227 6.1 14.8 0.00 0.04 0.04 48 1015.4
20260905125404 76 262 4.3 7.8 0.00 0.04 0.04 49 1015.5
20260905124904 75 227 4.3 11.3 0.00 0.04 0.04 49 1015.4
20260905124404 75 261 7.8 14.8 0.00 0.04 0.04 48 1015.5
20260905123905 75 239 7.8 15.6 0.00 0.04 0.04 50 1015.6
20260905123404 75 249 7.0 12.2 0.00 0.04 0.04 49 1015.7
20260905122404 74 239 5.2 13.0 0.00 0.04 0.04 52 1015.7
20260905121904 74 234 1.7 10.4 0.00 0.04 0.04 54 1015.8
20260905120905 73 258 1.7 10.4 0.00 0.04 0.04 57 1015.9
20260905120404 73 230 4.3 11.3 0.00 0.04 0.04 57 1015.9
20260905115904 73 226 2.6 10.4 0.00 0.04 0.04 61 1015.9
20260905115404 72 210 3.5 8.7 0.00 0.04 0.04 59 1016.1
20260905114904 72 234 2.6 8.7 0.00 0.04 0.04 60 1016.1
20260905114404 72 277 3.5 7.8 0.00 0.04 0.04 60 1016.1
20260905113904 72 227 2.6 7.0 0.00 0.04 0.04 61 1016.2
20260905113404 71 262 4.3 7.8 0.00 0.04 0.04 62 1016.3
20260905112904 71 244 2.6 5.2 0.00 0.04 0.04 63 1016.2
20260905112405 71 241 2.6 7.0 0.00 0.04 0.04 62 1016.3
20260905111904 70 241 2.6 7.0 0.00 0.04 0.04 64 1016.3
20260905111405 70 234 4.3 10.4 0.00 0.04 0.04 64 1016.2
20260905110904 70 295 2.6 7.8 0.00 0.04 0.04 66 1016.2
20260905105905 69 222 2.6 7.8 0.00 0.04 0.04 66 1016.4
20260905105404 69 263 2.6 10.4 0.00 0.04 0.04 65 1016.5
20260905104905 69 257 4.3 10.4 0.00 0.04 0.04 66 1016.6
20260905104405 69 231 3.5 8.7 0.00 0.04 0.04 68 1016.5
20260905103904 69 241 2.6 7.8 0.00 0.04 0.04 67 1016.5
20260905103404 69 282 4.3 7.8 0.00 0.04 0.04 68 1016.6
20260905102904 68 284 5.2 10.4 0.00 0.04 0.04 67 1016.5
20260905102405 68 289 3.5 11.3 0.00 0.04 0.04 70 1016.6
20260905101904 68 284 1.7 13.9 0.00 0.04 0.04 70 1016.5
20260905101406 67 235 3.5 12.2 0.00 0.04 0.04 71 1016.5
20260905100904 67 237 5.2 10.4 0.00 0.04 0.04 72 1016.5
20260905100404 67 242 4.3 13.0 0.00 0.04 0.04 71 1016.6
20260905095904 67 243 5.2 10.4 0.00 0.04 0.04 73 1016.6
20260905095404 67 239 1.7 7.0 0.00 0.04 0.04 73 1016.6
20260905094904 66 246 4.3 8.7 0.00 0.04 0.04 72 1016.6
20260905094405 66 301 2.6 8.7 0.00 0.04 0.04 72 1016.7
20260905093404 66 281 1.7 8.7 0.00 0.04 0.04 74 1016.7
20260905092904 66 282 3.5 8.7 0.00 0.04 0.04 75 1016.7
20260905092404 66 281 2.6 6.1 0.00 0.04 0.04 76 1016.7
20260905091904 65 213 2.6 7.8 0.00 0.04 0.04 78 1016.7
20260905091404 65 240 4.3 12.2 0.00 0.04 0.04 81 1016.8
20260905090904 65 243 5.2 7.0 0.00 0.04 0.04 81 1016.9
20260905090404 64 238 5.2 10.4 0.00 0.04 0.04 84 1016.9
20260905085404 63 237 4.3 8.7 0.00 0.04 0.04 86 1017.0
20260905084904 63 228 2.6 7.8 0.00 0.04 0.04 87 1017.1
20260905084405 63 224 2.6 6.1 0.00 0.04 0.04 87 1017.1
20260905083904 62 219 2.6 5.2 0.00 0.04 0.04 88 1017.1
20260905083404 62 231 2.6 4.3 0.00 0.04 0.04 88 1016.8
20260905082904 62 242 0.0 1.7 0.00 0.04 0.04 89 1016.5
20260905082404 62 242 0.9 2.6 0.00 0.04 0.04 90 1016.7
20260905081905 62 235 0.9 5.2 0.01 0.04 0.04 90 1016.8
20260905081404 62 229 0.9 4.3 0.01 0.04 0.04 90 1016.7
20260905080905 62 229 1.7 2.6 0.01 0.04 0.04 90 1016.6
20260905075904 62 225 0.9 2.6 0.01 0.04 0.04 90 1016.3
20260905074904 62 239 2.6 5.2 0.02 0.04 0.04 90 1016.5
20260905074404 62 244 0.9 2.6 0.02 0.04 0.04 90 1015.4
20260905073904 62 244 1.7 2.6 0.02 0.04 0.04 91 1015.8
20260905073405 62 241 1.7 5.2 0.02 0.04 0.04 91 1016.1
20260905072905 62 223 1.7 5.2 0.02 0.04 0.04 91 1016.1
20260905072404 62 238 0.9 2.6 0.02 0.04 0.04 90 1015.8
20260905071904 62 232 0.0 2.6 0.02 0.03 0.03 90 1015.8
20260905071404 62 232 0.9 2.6 0.02 0.03 0.03 90 1016.0
20260905070904 63 232 1.7 2.6 0.02 0.03 0.03 90 1016.0
20260905065404 63 223 1.7 4.3 0.02 0.03 0.03 89 1015.7
20260905064905 63 245 0.9 1.7 0.02 0.02 0.02 89 1015.5
20260905064404 63 245 0.0 0.0 0.02 0.02 0.02 89 1014.9
20260905063904 63 245 0.0 0.0 0.02 0.02 0.02 88 1014.9
20260905063404 63 245 0.0 0.0 0.02 0.02 0.02 88 1015.0
20260905062904 63 245 0.0 0.0 0.02 0.02 0.02 88 1015.0
20260905061904 63 245 0.0 0.0 0.02 0.02 0.02 87 1015.3
20260905061404 64 245 0.0 0.0 0.02 0.02 0.02 87 1015.4
20260905060904 64 245 0.0 0.0 0.02 0.02 0.02 87 1015.0
20260905060404 64 245 0.0 0.0 0.02 0.02 0.02 86 1015.0
20260905055904 64 245 0.0 0.0 0.02 0.02 0.02 85 1015.0
20260905055405 64 245 0.0 0.9 0.02 0.02 0.02 85 1014.9
20260905054904 64 245 0.0 0.0 0.01 0.01 0.01 84 1015.4
20260905054405 64 245 0.0 0.0 0.01 0.01 0.01 83 1015.1
20260905053904 65 245 0.0 1.7 0.01 0.01 0.01 83 1014.9
20260905052905 65 245 1.7 4.3 0.01 0.01 0.01 81 1015.1
20260905051905 66 251 0.9 2.6 0.00 0.00 0.00 79 1015.0
20260905051404 66 251 0.9 2.6 0.00 0.00 0.00 78 1014.8
20260905050904 66 270 0.9 2.6 0.00 0.00 0.00 76 1014.8
20260905050405 66 289 1.7 6.1 0.00 0.00 0.00 75 1014.5
20260905045904 66 251 0.9 4.3 0.00 0.00 0.00 75 1014.4
20260905044904 66 274 2.6 7.8 0.00 0.00 0.00 73 1014.4
20260905044404 66 294 2.6 7.8 0.00 0.00 0.00 72 1014.2
20260905043904 66 282 1.7 8.7 0.00 0.00 0.00 72 1014.3
20260905043404 66 280 2.6 7.0 0.00 0.00 0.00 72 1014.1
20260905042904 66 279 4.3 10.4 0.00 0.00 0.00 74 1013.8
20260905042405 66 288 2.6 8.7 0.00 0.00 0.00 75 1013.6
20260905041904 66 283 1.7 6.1 0.00 0.00 0.00 76 1013.5
20260905041405 66 298 2.6 4.3 0.00 0.00 0.00 76 1013.5
20260905040904 66 274 0.9 2.6 0.00 0.00 0.00 76 1013.4
20260905040404 66 201 1.7 4.3 0.00 0.00 0.00 76 1013.2
20260905035904 66 269 0.9 1.7 0.00 0.00 0.00 75 1013.1
20260905035406 66 269 0.9 2.6 0.00 0.00 0.00 75 1013.1
20260905034404 67 41 0.0 0.0 0.00 0.00 0.00 74 1012.6
20260905033404 67 41 0.0 0.0 0.00 0.00 0.00 72 1012.5
20260905032904 67 41 0.0 0.0 0.00 0.00 0.00 72 1012.3
20260905032405 68 41 0.0 0.0 0.00 0.00 0.00 71 1012.4
20260905031904 68 41 0.9 2.6 0.00 0.00 0.00 71 1012.2
20260905031405 68 41 0.0 0.0 0.00 0.00 0.00 70 1012.1
20260905030904 68 41 0.0 0.0 0.00 0.00 0.00 70 1012.3
20260905030404 69 41 0.0 0.9 0.00 0.00 0.00 70 1012.2
20260905025904 69 41 0.0 1.7 0.00 0.00 0.00 69 1012.2
20260905025405 69 50 2.6 5.2 0.00 0.00 0.00 69 1011.8
20260905024904 70 35 2.6 5.2 0.00 0.00 0.00 68 1011.8
20260905023904 70 36 1.7 5.2 0.00 0.00 0.00 68 1011.8
20260905023404 70 39 0.9 2.6 0.00 0.00 0.00 67 1011.7
20260905022905 71 49 2.6 7.0 0.00 0.00 0.00 67 1011.7
20260905022404 71 33 4.3 8.7 0.00 0.00 0.00 67 1011.8
20260905021904 71 24 4.3 7.8 0.00 0.00 0.00 67 1011.8
20260905021404 71 357 2.6 5.2 0.00 0.00 0.00 67 1011.6
20260905020905 71 277 3.5 8.7 0.00 0.00 0.00 67 1011.3
20260905020404 71 270 2.6 7.0 0.00 0.00 0.00 67 1011.2
20260905015404 71 281 3.5 10.4 0.00 0.00 0.00 68 1011.1
20260905014904 70 279 3.5 10.4 0.00 0.00 0.00 69 1010.9
20260905014413 70 292 5.2 8.7 0.00 0.00 0.00 70 1010.8
20260905013404 69 224 1.7 7.8 0.00 0.00 0.00 73 1010.2
20260905012904 69 242 5.2 8.7 0.00 0.00 0.00 73 1010.1
20260905012405 69 266 2.6 7.8 0.00 0.00 0.00 74 1009.9
20260905011905 69 324 1.7 2.6 0.00 0.00 0.00 77 1009.9
20260905011404 69 36 0.9 1.7 0.00 0.00 0.00 77 1009.7
20260905010905 69 36 0.0 0.0 0.00 0.00 0.00 76 1009.6
20260905010405 69 36 0.0 0.9 0.00 0.00 0.00 76 1009.6
20260905005904 69 36 0.0 0.9 0.00 0.00 0.00 76 1009.5
20260905005404 70 36 0.0 0.9 0.00 0.00 0.00 75 1009.5
20260905004404 70 36 0.0 0.0 0.00 0.00 0.00 74 1009.5
20260905003904 70 36 0.0 0.0 0.00 0.00 0.00 74 1009.5
20260905003404 70 36 0.0 0.0 0.00 0.00 0.00 73 1009.4
20260905002904 70 36 0.0 0.0 0.00 0.00 0.00 72 1009.4
20260905002404 70 36 0.0 0.0 0.00 0.00 0.00 72 1009.4
20260905001904 70 36 0.0 0.0 0.00 0.00 0.00 72 1009.5
20260905001405 70 36 0.0 0.0 0.00 0.00 0.00 71 1009.5
20260905000405 70 36 0.0 2.6 0.00 0.00 0.00 71 1009.4
20260904235904 70 36 0.9 1.7 0.00 0.00 0.00 70 1009.4
20260904235404 70 36 0.0 2.6 0.00 0.00 0.00 71 1009.4
20260904234404 70 36 1.7 2.6 0.00 0.00 0.00 71 1009.4
20260904233904 70 36 0.0 0.9 0.00 0.00 0.00 71 1009.5
20260904233404 70 36 0.9 2.6 0.00 0.00 0.00 70 1009.5
20260904232904 70 36 1.7 4.3 0.00 0.00 0.00 70 1009.4
20260904232404 70 38 1.7 2.6 0.00 0.00 0.00 70 1009.4
20260904231904 70 38 0.9 15.6 0.00 0.00 0.00 70 1009.3
20260904231404 70 38 1.7 2.6 0.00 0.00 0.00 70 1009.3
20260904230904 70 48 1.7 2.6 0.00 0.00 0.00 70 1009.3
20260904225904 70 57 1.7 2.6 0.00 0.00 0.00 70 1009.2
20260904225404 70 87 1.7 2.6 0.00 0.00 0.00 70 1009.2
20260904224906 70 88 0.9 1.7 0.00 0.00 0.00 70 1009.3
20260904224404 70 88 0.9 2.6 0.00 0.00 0.00 70 1009.2
20260904223405 70 88 0.9 2.6 0.00 0.00 0.00 70 1009.2
20260904222405 70 88 1.7 2.6 0.00 0.00 0.00 70 1009.1
20260904221904 70 89 0.0 1.7 0.00 0.00 0.00 69 1009.1
20260904221405 70 89 1.7 2.6 0.00 0.00 0.00 69 1009.1
20260904220904 70 105 1.7 2.6 0.00 0.00 0.00 69 1009.2
20260904220404 70 115 0.0 1.7 0.00 0.00 0.00 69 1009.2
20260904215904 70 115 1.7 1.7 0.00 0.00 0.00 70 1009.2
20260904215404 70 115 1.7 2.6 0.00 0.00 0.00 70 1009.2
20260904214904 70 133 0.9 2.6 0.00 0.00 0.00 70 1009.2
20260904214404 70 136 0.9 1.7 0.00 0.00 0.00 70 1009.1
20260904213404 70 136 0.0 0.0 0.00 0.00 0.00 70 1009.2
20260904212904 70 136 0.0 0.0 0.00 0.00 0.00 70 1009.2
20260904212404 70 136 0.0 0.0 0.00 0.00 0.00 69 1009.2
20260904211904 70 136 0.0 2.6 0.00 0.00 0.00 70 1009.3
20260904211404 70 136 0.9 2.6 0.00 0.00 0.00 70 1009.3
20260904210905 70 134 0.0 2.6 0.00 0.00 0.00 70 1009.2
20260904210404 70 133 0.9 2.6 0.00 0.00 0.00 69 1009.3
20260904205904 71 101 0.0 0.0 0.00 0.00 0.00 69 1009.3
20260904205404 71 101 0.0 0.9 0.00 0.00 0.00 68 1009.3
20260904204904 71 101 0.0 0.0 0.00 0.00 0.00 68 1009.4
20260904204404 71 101 0.0 1.7 0.00 0.00 0.00 68 1009.4
20260904203905 71 101 0.9 1.7 0.00 0.00 0.00 67 1009.6
20260904203404 71 101 0.0 0.9 0.00 0.00 0.00 67 1009.6
20260904202904 72 101 0.9 1.7 0.00 0.00 0.00 66 1009.7
20260904202405 72 101 0.9 2.6 0.00 0.00 0.00 66 1009.7
20260904201405 72 101 1.7 2.6 0.00 0.00 0.00 65 1009.8
20260904200904 73 206 0.9 2.6 0.00 0.00 0.00 65 1009.8
20260904200404 73 206 0.9 1.7 0.00 0.00 0.00 64 1009.8
20260904195904 73 206 0.0 1.7 0.00 0.00 0.00 63 1009.9
20260904195404 73 206 0.9 1.7 0.00 0.00 0.00 63 1010.0
20260904194405 74 206 0.0 0.9 0.00 0.00 0.00 61 1010.0
20260904193904 74 206 0.0 0.0 0.00 0.00 0.00 60 1009.9
20260904193404 74 206 0.0 0.9 0.00 0.00 0.00 59 1009.9
20260904192905 75 206 0.0 0.0 0.00 0.00 0.00 59 1010.0
20260904192404 75 206 0.0 0.0 0.00 0.00 0.00 59 1010.0
20260904191404 76 207 0.9 4.3 0.00 0.00 0.00 58 1010.0
20260904190905 76 213 0.0 2.6 0.00 0.00 0.00 58 1010.1
20260904190405 76 213 1.7 2.6 0.00 0.00 0.00 58 1010.1
20260904185904 77 213 1.7 2.6 0.00 0.00 0.00 57 1010.0
20260904185404 77 213 0.0 0.9 0.00 0.00 0.00 56 1010.0
20260904184904 77 213 0.9 1.7 0.00 0.00 0.00 56 1009.9
20260904184404 78 213 0.9 2.6 0.00 0.00 0.00 55 1009.9
20260904183404 78 213 2.6 2.6 0.00 0.00 0.00 54 1009.8
20260904182904 79 211 1.7 2.6 0.00 0.00 0.00 54 1009.7
20260904182404 79 211 1.7 2.6 0.00 0.00 0.00 53 1009.7
20260904181904 79 211 1.7 2.6 0.00 0.00 0.00 53 1009.7
20260904181404 79 211 2.6 4.3 0.00 0.00 0.00 52 1009.7
20260904180904 80 207 2.6 4.3 0.00 0.00 0.00 52 1009.5
20260904175906 80 204 1.7 2.6 0.00 0.00 0.00 51 1009.4
20260904175404 81 203 1.7 4.3 0.00 0.00 0.00 51 1009.3
20260904174904 81 202 1.7 4.3 0.00 0.00 0.00 50 1009.2
20260904174404 81 198 2.6 6.1 0.00 0.00 0.00 50 1009.2
20260904173904 81 189 2.6 7.0 0.00 0.00 0.00 49 1009.2
20260904173405 81 195 3.5 7.0 0.00 0.00 0.00 49 1009.2
20260904172904 82 238 3.5 8.7 0.00 0.00 0.00 49 1009.2
20260904171404 82 194 4.3 7.0 0.00 0.00 0.00 48 1009.2
20260904170905 83 219 3.5 10.4 0.00 0.00 0.00 48 1009.1
20260904170404 83 224 3.5 7.0 0.00 0.00 0.00 48 1009.1
20260904165405 83 209 5.2 10.4 0.00 0.00 0.00 47 1009.0
20260904164904 83 216 4.3 8.7 0.00 0.00 0.00 47 1009.1
20260904164404 84 202 5.2 8.7 0.00 0.00 0.00 46 1009.1
20260904163904 84 218 6.1 15.6 0.00 0.00 0.00 46 1009.1
20260904163404 84 218 4.3 7.0 0.00 0.00 0.00 46 1009.2
20260904162905 84 218 4.3 8.7 0.00 0.00 0.00 45 1009.3
20260904162404 84 213 4.3 10.4 0.00 0.00 0.00 45 1009.4
20260904161904 85 226 5.2 7.8 0.00 0.00 0.00 44 1009.5
20260904161404 85 220 5.2 10.4 0.00 0.00 0.00 45 1009.6
20260904160905 85 227 5.2 10.4 0.00 0.00 0.00 44 1009.7
20260904160405 85 235 6.1 11.3 0.00 0.00 0.00 44 1009.7
20260904155904 86 229 2.6 6.1 0.00 0.00 0.00 45 1009.8
20260904155404 86 215 5.2 13.0 0.00 0.00 0.00 44 1009.9
20260904154904 86 221 7.8 14.8 0.00 0.00 0.00 43 1009.9
20260904154404 87 225 6.1 13.9 0.00 0.00 0.00 43 1010.0
20260904153904 87 240 7.0 14.8 0.00 0.00 0.00 43 1010.0
20260904152905 87 213 6.1 10.4 0.00 0.00 0.00 44 1010.2
20260904152404 86 228 7.8 12.2 0.00 0.00 0.00 44 1010.3
20260904151905 86 217 4.3 10.4 0.00 0.00 0.00 45 1010.3
20260904151404 85 235 5.2 10.4 0.00 0.00 0.00 46 1010.4